Ankara, Turkey

11:22 PM +03 on April 19, 2018 (GMT +0300)
Esenboga

Weather History for LTAC - November, 2012

Change the Weather History Date:

Sunday, November 11, 2012

  Actual Average Record
Temperature  
Mean Temperature 47 °F -  
Max Temperature 52 °F 48 °F 69 °F (2004)
Min Temperature 42 °F 27 °F 17 °F (1999)
Degree Days  
Heating Degree Days 18    
Moisture  
Dew Point 37 °F    
Average Humidity 70    
Maximum Humidity 81    
Minimum Humidity 48    
Precipitation  
Precipitation 0.00 in - - ()
Sea Level Pressure  
Sea Level Pressure 30.10 in    
Wind  
Wind Speed 11 mph ()    
Max Wind Speed 23 mph    
Max Gust Speed -    
Visibility 6.7 miles    
Events      
Averages and records for this station are not official NWS values.
T = Trace of Precipitation, MM = Missing Value Source: Averaged Metar Reports

Daily Weather History Graph

Daily Weather History Graph

Search for Another Location

Airport or City:

Astronomy

Nov. 11, 2012 Rise Set
Actual Time 6:28 AM EET 4:34 PM EET
Civil Twilight 6:00 AM EET 5:03 PM EET
Nautical Twilight 5:27 AM EET 5:36 PM EET
Astronomical Twilight 4:55 AM EET 6:07 PM EET
Moon 3:19 AM EET (11/11) 2:45 PM EET (11/11)
Length of Visible Light 11h 03m
Length of Day
10h 05m
Waning Crescent, 9% of the Moon is Illuminated
Nov 11
Waning Crescent
Nov 14
New
Nov 20
First Quarter
Nov 28
Full
Dec 6
Last Quarter

Hourly Weather History & Observations

Time (EET) Temp. Windchill Dew Point Humidity Pressure Visibility Wind Dir Wind Speed Gust Speed Precip Events Conditions
12:20 AM 42.8 °F 36.2 °F 37.4 °F 81% 30.04 in 6.2 mi NNE 12.7 mph - N/A   Mostly Cloudy
12:50 AM 42.8 °F 37.5 °F 37.4 °F 81% 30.04 in 6.2 mi NNE 9.2 mph - N/A   Mostly Cloudy
1:20 AM 44.6 °F 39.2 °F 37.4 °F 76% 30.04 in 6.2 mi NE 10.4 mph - N/A   Mostly Cloudy
1:50 AM 42.8 °F 39.3 °F 37.4 °F 81% 30.04 in 6.2 mi North 5.8 mph - N/A   Mostly Cloudy
2:00 AM 43 °F - 37 °F 72% 30.08 in 12 mi North 5.8 mph - -   Partly Cloudy
2:20 AM 44.6 °F 38.8 °F 37.4 °F 76% 30.04 in 6.2 mi NNE 11.5 mph - N/A   Mostly Cloudy
2:50 AM 44.6 °F 38.1 °F 37.4 °F 76% 30.04 in 6.2 mi North 13.8 mph - N/A   Mostly Cloudy
3:20 AM 44.6 °F 38.1 °F 37.4 °F 76% 30.04 in 6.2 mi North 13.8 mph - N/A   Mostly Cloudy
3:50 AM 44.6 °F 38.8 °F 37.4 °F 76% 30.04 in 6.2 mi NNE 11.5 mph - N/A   Mostly Cloudy
4:20 AM 44.6 °F 37.8 °F 37.4 °F 76% 30.04 in 6.2 mi North 15.0 mph - N/A   Mostly Cloudy
4:50 AM 44.6 °F 38.1 °F 37.4 °F 76% 30.06 in 6.2 mi NNE 13.8 mph - N/A   Mostly Cloudy
5:20 AM 44.6 °F 36.9 °F 35.6 °F 71% 30.04 in 6.2 mi North 18.4 mph - N/A   Mostly Cloudy
5:50 AM 44.6 °F 36.9 °F 35.6 °F 71% 30.06 in 6.2 mi North 18.4 mph - N/A   Mostly Cloudy
6:20 AM 44.6 °F 38.1 °F 35.6 °F 71% 30.06 in 6.2 mi North 13.8 mph - N/A   Mostly Cloudy
6:50 AM 42.8 °F 36.2 °F 35.6 °F 76% 30.06 in 6.2 mi NNE 12.7 mph - N/A   Mostly Cloudy
7:20 AM 44.6 °F 38.4 °F 33.8 °F 66% 30.09 in 6.2 mi NE 12.7 mph - N/A   Scattered Clouds
7:50 AM 42.8 °F 35.8 °F 35.6 °F 76% 30.09 in 6.2 mi NNE 13.8 mph - N/A   Scattered Clouds
8:00 AM 44 °F - 35 °F 61% 30.14 in 12 mi NNE 13.8 mph - -   Partly Cloudy
8:20 AM 42.8 °F 37.5 °F 35.6 °F 76% 30.09 in 6.2 mi NNE 9.2 mph - N/A   Scattered Clouds
8:50 AM 44.6 °F 38.8 °F 35.6 °F 71% 30.09 in 6.2 mi NNE 11.5 mph - N/A   Scattered Clouds
9:20 AM 48.2 °F - 37.4 °F 66% 30.09 in 6.2 mi North 16.1 mph - N/A   Scattered Clouds
9:50 AM 50.0 °F - 37.4 °F 62% 30.09 in 6.2 mi North 17.3 mph - N/A   Scattered Clouds
10:20 AM 50.0 °F - 35.6 °F 58% 30.12 in 6.2 mi NNE 23.0 mph - N/A   Scattered Clouds
10:50 AM 50.0 °F - 39.2 °F 66% 30.09 in 6.2 mi North 19.6 mph - N/A   Scattered Clouds
11:20 AM 50.0 °F - 37.4 °F 62% 30.09 in 6.2 mi North 18.4 mph - N/A   Scattered Clouds
11:50 AM 50.0 °F - 37.4 °F 62% 30.09 in 6.2 mi North 18.4 mph - N/A   Scattered Clouds
12:20 PM 50.0 °F - 37.4 °F 62% 30.09 in 6.2 mi North 18.4 mph - N/A   Scattered Clouds
12:50 PM 51.8 °F - 37.4 °F 58% 30.09 in 6.2 mi North 18.4 mph - N/A   Mostly Cloudy
1:20 PM 51.8 °F - 37.4 °F 58% 30.09 in 6.2 mi North 19.6 mph - N/A   Mostly Cloudy
1:50 PM 51.8 °F - 37.4 °F 58% 30.09 in 6.2 mi North 19.6 mph - N/A   Mostly Cloudy
2:00 PM 51 °F - 37 °F 48% 30.11 in 12 mi North 19.6 mph - -   Partly Cloudy
2:20 PM 51.8 °F - 37.4 °F 58% 30.09 in 6.2 mi North 15.0 mph - N/A   Mostly Cloudy
2:50 PM 51.8 °F - 37.4 °F 58% 30.09 in 6.2 mi North 16.1 mph - N/A   Mostly Cloudy
3:20 PM 50.0 °F - 37.4 °F 62% 30.09 in 6.2 mi NNE 19.6 mph - N/A   Mostly Cloudy
3:50 PM 48.2 °F - 37.4 °F 66% 30.12 in 6.2 mi North 17.3 mph - N/A   Mostly Cloudy
4:50 PM 48.2 °F - 37.4 °F 66% 30.12 in 6.2 mi NNE 13.8 mph - N/A   Mostly Cloudy
5:20 PM 48.2 °F - 37.4 °F 66% 30.12 in 6.2 mi NNE 9.2 mph - N/A   Mostly Cloudy
5:50 PM 48.2 °F - 37.4 °F 66% 30.15 in 6.2 mi NNE 9.2 mph - N/A   Mostly Cloudy
6:20 PM 46.4 °F 41.5 °F 37.4 °F 71% 30.15 in 6.2 mi NNE 10.4 mph - N/A   Mostly Cloudy
6:50 PM 46.4 °F 41.1 °F 39.2 °F 76% 30.15 in 6.2 mi NNE 11.5 mph - N/A   Mostly Cloudy
7:20 PM 46.4 °F 41.9 °F 37.4 °F 71% 30.18 in 6.2 mi NNE 9.2 mph - N/A   Mostly Cloudy
7:50 PM 46.4 °F 43.5 °F 37.4 °F 71% 30.18 in 6.2 mi NNE 5.8 mph - N/A   Mostly Cloudy
8:00 PM 46 °F - 38 °F 66% 30.21 in 12 mi NNE 5.8 mph - -   Partly Cloudy
8:20 PM 46.4 °F 43.5 °F 39.2 °F 76% 30.18 in 6.2 mi NE 5.8 mph - N/A   Mostly Cloudy
8:50 PM 46.4 °F 42.9 °F 39.2 °F 76% 30.18 in 6.2 mi NNE 6.9 mph - N/A   Mostly Cloudy
9:20 PM 46.4 °F 41.9 °F 39.2 °F 76% 30.18 in 6.2 mi North 9.2 mph - N/A   Mostly Cloudy
9:50 PM 44.6 °F 42.2 °F 37.4 °F 76% 30.18 in 6.2 mi NE 4.6 mph - N/A   Mostly Cloudy
10:20 PM 44.6 °F 43.1 °F 37.4 °F 76% 30.18 in 6.2 mi North 3.5 mph - N/A   Mostly Cloudy
10:50 PM 44.6 °F - 37.4 °F 76% 30.18 in 6.2 mi SW 2.3 mph - N/A   Mostly Cloudy
11:20 PM 44.6 °F 43.1 °F 37.4 °F 76% 30.18 in 6.2 mi Variable 3.5 mph - N/A   Mostly Cloudy
11:50 PM 42.8 °F 41.1 °F 37.4 °F 81% 30.18 in 6.2 mi SSW 3.5 mph - N/A   Mostly Cloudy